{"data":{"norad_id":67619,"intl_designator":"2026-020C","name":"STARLINK-36119","alt_names":[],"object_type":"PAYLOAD","status":"ACTIVE","operator":null,"country":"US","launch_date":"2026-01-30","launch_site_code":"AFETR","launch_vehicle":null,"mission":null,"orbit_class":"UNKNOWN","rcs_meters":null,"size_class":null,"mass_kg":null,"dimensions":null,"purposes":["comms"],"wikipedia_slug":null,"has_3d_model":false,"image_url":null,"decayed_at":null,"tle_current":{"epoch":"2026-05-25T03:25:59.695392Z","epoch_age_seconds":69637,"freshness":"FRESH","line1":"1 67619U 26020C   26145.14305203  .00020045  00000+0  73550-3 0  9998","line2":"2 67619  43.0002  68.2344 0001327 274.7946  85.2754 15.27600785 17807","mean_motion":15.27600785,"eccentricity":0.0001327,"inclination_deg":43.0002,"raan_deg":68.2344,"arg_perigee_deg":274.7946,"mean_anomaly_deg":85.2754,"bstar":0.0007355,"rev_number":1780,"period_min":94.265466091653,"perigee_km":482.07638784189,"apogee_km":483.89733011406,"semimajor_km":6861.123858978,"source":"CELESTRAK","updated_at":"2026-05-25T13:38:21.649194Z"}}}